Weather History for EIKN - October, 2012

Change the Weather History Date:

Sunday, October 7, 2012

  Actual Average Record
Temperature  
Mean Temperature 46 °F -  
Max Temperature 51 °F - - ()
Min Temperature 41 °F - - ()
Degree Days  
Heating Degree Days 19    
Moisture  
Dew Point 41 °F    
Average Humidity 79    
Maximum Humidity 95    
Minimum Humidity 61    
Precipitation  
Precipitation 0.00 in - - ()
Sea Level Pressure  
Sea Level Pressure 30.15 in    
Wind  
Wind Speed 6 mph ()    
Max Wind Speed 9 mph    
Max Gust Speed -    
Visibility 6.2 miles    
Events      
T = Trace of Precipitation, MM = Missing Value Source: Averaged Metar Reports

Daily Weather History Graph

Daily Weather History Graph

Search for Another Location

Airport or City:

Trip Planner

Search our weather history database for the weather conditions in past years. The results will help you decide how hot, cold, wet, or windy it might be!

Date:

Astronomy

Oct. 07, 2012 Rise Set
Actual Time 7:48 AM IST 6:56 PM IST
Civil Twilight 7:13 AM IST 7:31 PM IST
Nautical Twilight 6:32 AM IST 8:12 PM IST
Astronomical Twilight 5:50 AM IST 8:53 PM IST
Moon 11:17 PM IST (10/7) 2:55 PM IST (10/7)
Length of Visible Light 12h 18m
Length of Day
11h 07m
Waning Gibbous, 58% of the Moon is Illuminated
Oct 7
Waning Gibbous
Oct 8
Last Quarter
Oct 15
New
Oct 22
First Quarter
Oct 29
Full

Hourly Weather History & Observations

Time (IST) Temp. Windchill Dew Point Humidity Pressure Visibility Wind Dir Wind Speed Gust Speed Precip Events Conditions
1:00 AM 44 °F - 43 °F 95% 30.15 in - North 4.5 mph - -  
7:00 AM 41 °F - 40 °F 94% 30.18 in - East 4.5 mph - -  
7:30 AM 41.0 °F 37.1 °F 39.2 °F 93% 30.15 in - East 5.8 mph - N/A   Clear
8:00 AM 41.0 °F 36.4 °F 39.2 °F 93% 30.15 in - ESE 6.9 mph - N/A   Clear
8:30 AM 42.8 °F 38.0 °F 41.0 °F 93% 30.15 in - ESE 8.1 mph - N/A   Clear
9:00 AM 42.8 °F 38.0 °F 41.0 °F 93% 30.15 in - ESE 8.1 mph - N/A   Clear
9:30 AM 44.6 °F 40.7 °F 42.8 °F 93% 30.18 in - East 6.9 mph - N/A   Clear
10:00 AM 46.4 °F 43.5 °F 41.0 °F 81% 30.18 in - East 5.8 mph - N/A   Clear
10:30 AM 48.2 °F - 42.8 °F 82% 30.18 in - ESE 6.9 mph - N/A   Clear
11:00 AM 48.2 °F - 42.8 °F 82% 30.18 in - ESE 6.9 mph - N/A   Clear
11:30 AM 48.2 °F - 41.0 °F 76% 30.18 in - East 9.2 mph - N/A   Clear
12:00 PM 48.2 °F - 39.2 °F 71% 30.18 in - ESE 8.1 mph - N/A   Clear
12:30 PM 48.2 °F - 41.0 °F 76% 30.18 in 6.2 mi ESE 9.2 mph - N/A   Mostly Cloudy
1:00 PM 49 °F - 40 °F 61% 30.19 in 37 mi ESE 8.9 mph - -   Scattered Clouds
1:00 PM 50.0 °F - 39.2 °F 66% 30.18 in 6.2 mi ESE 8.1 mph - N/A   Mostly Cloudy
1:30 PM 50.0 °F - 39.2 °F 66% 30.15 in 6.2 mi SE 9.2 mph - N/A   Mostly Cloudy
2:00 PM 50.0 °F - 39.2 °F 66% 30.15 in 6.2 mi SE 9.2 mph - N/A   Mostly Cloudy
2:30 PM 51.8 °F - 39.2 °F 62% 30.15 in 6.2 mi ESE 9.2 mph - N/A   Mostly Cloudy
3:00 PM 51.8 °F - 41.0 °F 67% 30.12 in 6.2 mi ESE 9.2 mph - N/A   Mostly Cloudy
3:30 PM 50.0 °F - 41.0 °F 71% 30.12 in 6.2 mi ESE 9.2 mph - N/A   Mostly Cloudy
4:00 PM 50.0 °F - 41.0 °F 71% 30.12 in 6.2 mi ESE 6.9 mph - N/A   Mostly Cloudy
4:30 PM 50.0 °F - 42.8 °F 76% 30.12 in 6.2 mi East 8.1 mph - N/A   Mostly Cloudy
5:00 PM 50.0 °F - 42.8 °F 76% 30.12 in 6.2 mi East 6.9 mph - N/A   Overcast
5:30 PM 50.0 °F - 42.8 °F 76% 30.09 in 6.2 mi East 8.1 mph - N/A   Overcast
6:00 PM 48.2 °F - 42.8 °F 82% 30.12 in 6.2 mi East 6.9 mph - N/A   Overcast
6:30 PM 48.2 °F - 42.8 °F 82% 30.12 in 6.2 mi East 6.9 mph - N/A   Overcast
7:00 PM 47 °F - 43 °F 80% 30.14 in 31 mi East 6.7 mph - -   Overcast